Preview of NWS' New Version of Forecast
This preview is not operational and should not be used for support decisions.

Regional Weather Roundup (RWR)

Issued by National Weather Service (NWS)

                            
000
ASUS46 KPQR 171110
RWROR 

OREGON REGIONAL WEATHER ROUNDUP
NATIONAL WEATHER SERVICE PORTLAND OR
300 AM PST SUN FEB 17 2019

NOTE: "FAIR" INDICATES FEW OR NO CLOUDS BELOW 12,000 FEET WITH
NO SIGNIFICANT WEATHER AND/OR OBSTRUCTIONS TO VISIBILITY.

ORZ001>013-171200-
NORTHWEST OREGON

  
CITY           SKY/WX    TMP DP  RH WIND       PRES   REMARKS
ASTORIA        CLOUDY    31  31 100 CALM      29.99S                  
TILLAMOOK      CLOUDY    34  32  93 NE3       30.03S                  
NEWPORT        CLOUDY    34  34 100 E6        30.05F                  
PORTLAND       CLOUDY    36  34  92 S6        30.02R                  
VANCOUVER WA   MOCLDY    32  30  92 NW3       30.02R FOG              
SCAPPOOSE      CLOUDY    36  32  85 W3        30.01R                  
HILLSBORO      CLOUDY    34  33  96 CALM      30.00R                  
AURORA         CLOUDY    35  34  96 S3        30.02R                  
MCMINNVILLE    FOG       31  30  96 N5        30.01R VSB 1/4          
SALEM          CLOUDY    36  33  89 S7        30.01R                  
CORVALLIS      FOG       31  31 100 CALM      30.03S VSB 1/4          
EUGENE         CLEAR     32  29  88 S5        30.03S                  
$$

ORZ021-028-171200-
SOUTHWEST OREGON

  
CITY           SKY/WX    TMP DP  RH WIND       PRES   REMARKS
NORTH BEND     LGT RAIN  36  34  93 SE9       30.08F                  
BROOKINGS      CLOUDY    36  35  96 E3        30.06S                  
ROSEBURG       CLOUDY    35  33  92 CALM      30.04S                  
SEXTON SUMMIT  LGT SNOW  23  22  96 CALM      29.89S VSB 1            
GRANTS PASS    FLURRIES  32  32 100 CALM      30.04                   
MEDFORD        LGT SNOW  33  31  92 N3        30.00S FOG              
$$

ORZ014>016-041-171200-
COLUMBIA GORGE

  
CITY           SKY/WX    TMP DP  RH WIND       PRES   REMARKS
TROUTDALE      PTCLDY    35  33  92 CALM      30.02R FOG              
HOOD RIVER     PTCLDY    28  28 100 CALM      29.98R                  
THE DALLES     PTCLDY    29  25  85 SE6       29.97R                  
$$

ORZ029>031-041-044-049-050-061>064-502-503-505>511-171200-
EASTERN OREGON

  
CITY           SKY/WX    TMP DP  RH WIND       PRES   REMARKS
MADRAS         NOT AVBL                                               
REDMOND        MOCLDY    25  21  85 S3        29.87R                  
BEND           MOCLDY    27  21  80 SW3       29.86S                  
PRINEVILLE     CLOUDY    21  19  93 CALM      29.86S                  
KLAMATH FALLS  CLOUDY    25  21  85 W7        29.86S                  
LAKEVIEW       MOCLDY    18  18 100 SW3       29.83F                  
HERMISTON      LGT SNOW  32  30  92 W5        29.96R FOG              
PENDLETON      FOG       30  29  96 W8        29.90S VSB 1/4          
JOHN DAY       CLOUDY    28  26  89 CALM      29.84                   
MEACHAM        LGT SNOW  26  22  84 CALM      29.81S FOG              
LA GRANDE      MOCLDY    29  25  85 NW8       29.86S                  
BAKER CITY     FOG       27  24  89 CALM      29.82S VSB 3/4          
BURNS          CLOUDY    23  19  85 W3        29.83S                  
ROME             N/A     28  23  81 S5        29.81F                  
ONTARIO        FLURRIES  34  32  92 CALM      29.87S                  
$$